TAM672 SELT-SPST

Flight info

Callsign TAM672
Flight time 1h 18m
Altitude 35000
Route LTV2 LTV DCT ISRES
Aircraft A321/M-SDE3FGHIRWY/LB1

Departure

Time 2026-05-05 17:51
Airport Cotopaxi International Airport (SELT)

Arrival

Time 2026-05-05 19:10
Airport Cadete FAP Guillermo Del Castillo Paredes Airport (SPST)
Time Latitude Longitude Altitude Speed Heading
2026-05-05 17:05 -0.91926 -78.61848 9138 ft 0 kts 275°
2026-05-05 17:39 -0.91926 -78.61847 9137 ft 1 kts 275°
2026-05-05 17:39 -0.91929 -78.61823 9138 ft 4 kts 281°
2026-05-05 17:39 -0.91936 -78.61797 9138 ft 4 kts 290°
2026-05-05 17:40 -0.91948 -78.61774 9136 ft 4 kts 317°
2026-05-05 17:40 -0.91964 -78.61765 9137 ft 0 kts
2026-05-05 17:44 -0.91959 -78.61764 9138 ft 2 kts
2026-05-05 17:44 -0.91927 -78.61762 9138 ft 7 kts
2026-05-05 17:44 -0.91866 -78.61758 9140 ft 11 kts
2026-05-05 17:45 -0.91781 -78.61752 9141 ft 14 kts
2026-05-05 17:45 -0.91677 -78.61741 9146 ft 16 kts
2026-05-05 17:45 -0.91592 -78.61698 9146 ft 14 kts 65°
2026-05-05 17:45 -0.91518 -78.61643 9149 ft 15 kts 352°
2026-05-05 17:46 -0.91407 -78.61641 9149 ft 17 kts
2026-05-05 17:46 -0.91273 -78.61625 9150 ft 22 kts
2026-05-05 17:46 -0.91106 -78.61609 9153 ft 27 kts
2026-05-05 17:46 -0.90909 -78.61592 9156 ft 29 kts
2026-05-05 17:47 -0.90707 -78.61576 9164 ft 31 kts
2026-05-05 17:47 -0.90489 -78.61560 9171 ft 31 kts
2026-05-05 17:47 -0.90282 -78.61546 9183 ft 23 kts
2026-05-05 17:47 -0.90119 -78.61537 9186 ft 25 kts
2026-05-05 17:48 -0.89937 -78.61526 9194 ft 26 kts
2026-05-05 17:48 -0.89745 -78.61509 9198 ft 29 kts
2026-05-05 17:48 -0.89530 -78.61492 9200 ft 33 kts
2026-05-05 17:48 -0.89315 -78.61477 9203 ft 21 kts
2026-05-05 17:49 -0.89189 -78.61471 9204 ft 20 kts 357°
2026-05-05 17:49 -0.89063 -78.61510 9206 ft 17 kts 358°
2026-05-05 17:49 -0.89028 -78.61459 9209 ft 7 kts 118°
2026-05-05 17:49 -0.89050 -78.61456 9208 ft 3 kts 186°
2026-05-05 17:50 -0.89138 -78.61464 9205 ft 34 kts 184°
2026-05-05 17:50 -0.89603 -78.61498 9199 ft 96 kts 184°
2026-05-05 17:50 -0.90426 -78.61559 9176 ft 140 kts 184°
2026-05-05 17:50 -0.91522 -78.61640 9151 ft 174 kts 184°
2026-05-05 17:51 -0.92756 -78.61746 9545 ft 176 kts 183°
2026-05-05 17:51 -0.93977 -78.61816 10068 ft 178 kts 176°
2026-05-05 17:51 -0.95199 -78.61577 10470 ft 180 kts 161°
2026-05-05 17:51 -0.96403 -78.61210 10879 ft 181 kts 160°
2026-05-05 17:52 -0.97612 -78.60832 11284 ft 186 kts 160°
2026-05-05 17:52 -0.98882 -78.60437 11447 ft 202 kts 160°
2026-05-05 17:52 -1.00296 -78.60008 11574 ft 221 kts 162°
2026-05-05 17:52 -1.01809 -78.59562 11787 ft 232 kts 163°
2026-05-05 17:53 -1.03386 -78.59113 12073 ft 238 kts 164°
2026-05-05 17:53 -1.04995 -78.58670 12359 ft 241 kts 165°
2026-05-05 17:53 -1.06621 -78.58240 12540 ft 239 kts 165°
2026-05-05 17:53 -1.08226 -78.57837 12844 ft 241 kts 162°
2026-05-05 17:54 -1.09895 -78.57421 12955 ft 253 kts 163°
2026-05-05 17:54 -1.11647 -78.56988 13066 ft 268 kts 162°
2026-05-05 17:54 -1.13509 -78.56528 13210 ft 282 kts 164°
2026-05-05 17:54 -1.15454 -78.56047 13393 ft 297 kts 165°
2026-05-05 17:55 -1.17526 -78.55537 13522 ft 316 kts 164°
2026-05-05 17:55 -1.19722 -78.54994 13665 ft 335 kts 163°
2026-05-05 17:55 -1.22048 -78.54418 13779 ft 353 kts 164°
2026-05-05 17:55 -1.24491 -78.53813 13914 ft 370 kts 163°
2026-05-05 17:56 -1.27050 -78.53181 14046 ft 387 kts 165°
2026-05-05 17:56 -1.29694 -78.52529 14414 ft 395 kts 164°
2026-05-05 17:56 -1.32379 -78.51868 14901 ft 399 kts 164°
2026-05-05 17:56 -1.35090 -78.51200 15372 ft 403 kts 165°
2026-05-05 17:57 -1.37826 -78.50527 15859 ft 407 kts 164°
2026-05-05 17:57 -1.40587 -78.49846 16363 ft 411 kts 164°
2026-05-05 17:57 -1.43378 -78.49155 16926 ft 415 kts 163°
2026-05-05 17:57 -1.46192 -78.48456 17404 ft 418 kts 163°
2026-05-05 17:58 -1.49029 -78.47752 17847 ft 421 kts 163°
2026-05-05 17:58 -1.51886 -78.47043 18287 ft 424 kts 164°
2026-05-05 17:58 -1.54725 -78.46341 18733 ft 428 kts 164°
2026-05-05 17:58 -1.57625 -78.45625 19127 ft 431 kts 165°
2026-05-05 17:59 -1.60545 -78.44904 19526 ft 433 kts 164°
2026-05-05 17:59 -1.63478 -78.44180 19914 ft 436 kts 164°
2026-05-05 17:59 -1.66428 -78.43453 20275 ft 438 kts 165°
2026-05-05 17:59 -1.68431 -78.42960 20511 ft 440 kts 164°
2026-05-05 18:00 -1.71377 -78.42230 20835 ft 441 kts 164°
2026-05-05 18:00 -1.74364 -78.41487 21149 ft 444 kts 164°
2026-05-05 18:00 -1.77377 -78.40737 21469 ft 447 kts 164°
2026-05-05 18:00 -1.80399 -78.39983 21772 ft 449 kts 164°
2026-05-05 18:01 -1.83443 -78.39228 22084 ft 452 kts 164°
2026-05-05 18:01 -1.86506 -78.38473 22397 ft 454 kts 165°
2026-05-05 18:01 -1.89579 -78.37716 22704 ft 456 kts 164°
2026-05-05 18:01 -1.92666 -78.36957 23022 ft 458 kts 165°
2026-05-05 18:02 -1.95773 -78.36189 23368 ft 460 kts 165°
2026-05-05 18:02 -1.98890 -78.35418 23683 ft 462 kts 165°
2026-05-05 18:02 -2.02019 -78.34643 23952 ft 464 kts 165°
2026-05-05 18:02 -2.05162 -78.33864 24221 ft 466 kts 164°
2026-05-05 18:03 -2.08319 -78.33082 24493 ft 468 kts 164°
2026-05-05 18:03 -2.11490 -78.32294 24754 ft 470 kts 164°
2026-05-05 18:03 -2.14670 -78.31501 25018 ft 472 kts 164°
2026-05-05 18:03 -2.17864 -78.30706 25257 ft 474 kts 164°
2026-05-05 18:04 -2.21073 -78.29911 25489 ft 476 kts 164°
2026-05-05 18:04 -2.24293 -78.29115 25741 ft 478 kts 164°
2026-05-05 18:04 -2.27527 -78.28317 26005 ft 479 kts 164°
2026-05-05 18:04 -2.30773 -78.27514 26264 ft 481 kts 164°
2026-05-05 18:05 -2.34033 -78.26706 26528 ft 483 kts 164°
2026-05-05 18:05 -2.37298 -78.25896 26788 ft 485 kts 164°
2026-05-05 18:05 -2.40585 -78.25079 27050 ft 487 kts 164°
2026-05-05 18:05 -2.43844 -78.24271 27299 ft 489 kts 164°
2026-05-05 18:06 -2.47146 -78.23455 27639 ft 488 kts 164°
2026-05-05 18:06 -2.49376 -78.22905 27887 ft 488 kts 164°
2026-05-05 18:06 -2.53735 -78.21829 28386 ft 487 kts 163°
2026-05-05 18:06 -2.57023 -78.21016 28746 ft 486 kts 163°
2026-05-05 18:07 -2.60305 -78.20202 29108 ft 485 kts 163°
2026-05-05 18:07 -2.63582 -78.19389 29480 ft 485 kts 163°
2026-05-05 18:07 -2.66854 -78.18577 29825 ft 485 kts 163°
2026-05-05 18:07 -2.70129 -78.17766 30188 ft 485 kts 163°
2026-05-05 18:08 -2.73404 -78.16956 30537 ft 483 kts 163°
2026-05-05 18:08 -2.76664 -78.16151 30855 ft 482 kts 163°
2026-05-05 18:08 -2.79925 -78.15344 31151 ft 482 kts 163°
2026-05-05 18:08 -2.83178 -78.14537 31450 ft 481 kts 163°
2026-05-05 18:09 -2.86423 -78.13733 31768 ft 480 kts 163°
2026-05-05 18:09 -2.89670 -78.12930 32091 ft 479 kts 163°
2026-05-05 18:09 -2.92904 -78.12128 32430 ft 478 kts 163°
2026-05-05 18:09 -2.96127 -78.11327 32770 ft 477 kts 163°
2026-05-05 18:10 -2.99306 -78.10535 33109 ft 476 kts 163°
2026-05-05 18:10 -3.02520 -78.09734 33368 ft 476 kts 163°
2026-05-05 18:10 -3.05742 -78.08935 33699 ft 476 kts 163°
2026-05-05 18:10 -3.08951 -78.08141 34017 ft 475 kts 163°
2026-05-05 18:11 -3.12164 -78.07347 34311 ft 474 kts 163°
2026-05-05 18:11 -3.15357 -78.06557 34610 ft 473 kts 163°
2026-05-05 18:11 -3.18550 -78.05763 34897 ft 471 kts 163°
2026-05-05 18:11 -3.21730 -78.04971 35099 ft 471 kts 164°
2026-05-05 18:12 -3.24915 -78.04181 35152 ft 472 kts 164°
2026-05-05 18:12 -3.31303 -78.02601 35153 ft 472 kts 164°
2026-05-05 18:13 -3.37688 -78.01016 35157 ft 473 kts 164°
2026-05-05 18:13 -3.44072 -77.99425 35134 ft 473 kts 164°
2026-05-05 18:14 -3.50467 -77.97842 35139 ft 473 kts 164°
2026-05-05 18:14 -3.56826 -77.96266 35142 ft 474 kts 164°
2026-05-05 18:15 -3.63228 -77.94673 35093 ft 474 kts 164°
2026-05-05 18:15 -3.69635 -77.93082 35098 ft 474 kts 164°
2026-05-05 18:16 -3.76047 -77.91496 35079 ft 475 kts 164°
2026-05-05 18:16 -3.82468 -77.89906 35078 ft 475 kts 164°
2026-05-05 18:17 -3.88892 -77.88303 35079 ft 476 kts 164°
2026-05-05 18:17 -3.95326 -77.86703 35077 ft 476 kts 164°
2026-05-05 18:18 -4.01724 -77.85109 35079 ft 476 kts 164°
2026-05-05 18:18 -4.08156 -77.83515 35070 ft 476 kts 164°
2026-05-05 18:19 -4.14600 -77.81913 35066 ft 476 kts 164°
2026-05-05 18:19 -4.21030 -77.80320 35054 ft 476 kts 164°
2026-05-05 18:20 -4.27469 -77.78717 35051 ft 476 kts 164°
2026-05-05 18:20 -4.33905 -77.77116 35046 ft 476 kts 164°
2026-05-05 18:21 -4.40339 -77.75520 35045 ft 476 kts 164°
2026-05-05 18:21 -4.46769 -77.73907 35045 ft 476 kts 164°
2026-05-05 18:22 -4.53215 -77.72305 35043 ft 477 kts 164°
2026-05-05 18:22 -4.59667 -77.70708 35037 ft 478 kts 164°
2026-05-05 18:23 -4.66078 -77.69108 35042 ft 478 kts 164°
2026-05-05 18:23 -4.72532 -77.67502 35040 ft 478 kts 164°
2026-05-05 18:24 -4.78993 -77.65890 35040 ft 478 kts 164°
2026-05-05 18:24 -4.85451 -77.64275 35041 ft 478 kts 164°
2026-05-05 18:25 -4.91922 -77.62664 35057 ft 479 kts 164°
2026-05-05 18:25 -4.98392 -77.61058 35052 ft 479 kts 164°
2026-05-05 18:26 -5.04863 -77.59449 35051 ft 479 kts 164°
2026-05-05 18:26 -5.11340 -77.57831 35072 ft 479 kts 164°
2026-05-05 18:27 -5.17809 -77.56220 35076 ft 479 kts 164°
2026-05-05 18:27 -5.24284 -77.54604 35097 ft 480 kts 164°
2026-05-05 18:28 -5.34015 -77.52173 35090 ft 480 kts 165°
2026-05-05 18:28 -5.40462 -77.50572 35091 ft 481 kts 165°
2026-05-05 18:29 -5.46950 -77.48954 35094 ft 481 kts 164°
2026-05-05 18:29 -5.53448 -77.47333 35108 ft 481 kts 165°
2026-05-05 18:30 -5.59947 -77.45707 35108 ft 481 kts 164°
2026-05-05 18:30 -5.66438 -77.44077 35135 ft 481 kts 165°
2026-05-05 18:31 -5.72942 -77.42448 35131 ft 482 kts 165°
2026-05-05 18:31 -5.79442 -77.40824 35132 ft 482 kts 165°
2026-05-05 18:32 -5.85952 -77.39202 35158 ft 482 kts 165°
2026-05-05 18:32 -5.92457 -77.37576 35161 ft 482 kts 165°
2026-05-05 18:33 -5.98958 -77.35953 35145 ft 482 kts 164°
2026-05-05 18:33 -6.05472 -77.34320 35150 ft 482 kts 165°
2026-05-05 18:34 -6.11980 -77.32691 35169 ft 482 kts 164°
2026-05-05 18:34 -6.18494 -77.31063 35166 ft 482 kts 164°
2026-05-05 18:35 -6.25007 -77.29437 35173 ft 482 kts 165°
2026-05-05 18:35 -6.31519 -77.27809 35171 ft 482 kts 165°
2026-05-05 18:36 -6.37965 -77.26202 35161 ft 472 kts 165°
2026-05-05 18:36 -6.41112 -77.25414 35052 ft 461 kts 164°
2026-05-05 18:36 -6.44195 -77.24639 34807 ft 453 kts 164°
2026-05-05 18:37 -6.47241 -77.23877 34443 ft 449 kts 164°
2026-05-05 18:37 -6.50264 -77.23118 34017 ft 446 kts 163°
2026-05-05 18:37 -6.53268 -77.22364 33494 ft 444 kts 163°
2026-05-05 18:37 -6.56254 -77.21611 33035 ft 441 kts 163°
2026-05-05 18:38 -6.59217 -77.20836 32590 ft 437 kts 159°
2026-05-05 18:38 -6.61932 -77.19563 32174 ft 427 kts 143°
2026-05-05 18:38 -6.64168 -77.17662 31725 ft 417 kts 128°
2026-05-05 18:38 -6.65809 -77.15296 31278 ft 408 kts 113°
2026-05-05 18:39 -6.66775 -77.12645 30839 ft 400 kts 98°
2026-05-05 18:39 -6.67050 -77.09896 30442 ft 393 kts 86°
2026-05-05 18:39 -6.66995 -77.07157 29999 ft 391 kts 86°
2026-05-05 18:39 -6.66947 -77.04435 29558 ft 389 kts 86°
2026-05-05 18:40 -6.66908 -77.01759 29172 ft 386 kts 86°
2026-05-05 18:40 -6.66874 -76.99090 29006 ft 377 kts 86°
2026-05-05 18:40 -6.66842 -76.96486 28871 ft 367 kts 86°
2026-05-05 18:40 -6.66808 -76.93951 28738 ft 357 kts 86°
2026-05-05 18:41 -6.66769 -76.91489 28531 ft 349 kts 86°
2026-05-05 18:41 -6.66727 -76.89063 28222 ft 344 kts 86°
2026-05-05 18:41 -6.66683 -76.86669 27871 ft 341 kts 86°
2026-05-05 18:41 -6.66641 -76.84296 27507 ft 338 kts 86°
2026-05-05 18:42 -6.66601 -76.81940 27137 ft 336 kts 86°
2026-05-05 18:42 -6.66561 -76.79603 26780 ft 333 kts 86°
2026-05-05 18:42 -6.66523 -76.77278 26408 ft 331 kts 87°
2026-05-05 18:42 -6.66486 -76.74967 26073 ft 328 kts 87°
2026-05-05 18:43 -6.66450 -76.72681 25741 ft 326 kts 87°
2026-05-05 18:43 -6.66414 -76.70432 25396 ft 325 kts 87°
2026-05-05 18:43 -6.66374 -76.68126 24648 ft 337 kts 87°
2026-05-05 18:43 -6.66330 -76.65723 23855 ft 351 kts 88°
2026-05-05 18:44 -6.66286 -76.63224 22917 ft 364 kts 88°
2026-05-05 18:44 -6.66242 -76.60661 21918 ft 365 kts 88°
2026-05-05 18:44 -6.66297 -76.58123 20972 ft 361 kts 96°
2026-05-05 18:44 -6.66807 -76.55675 20081 ft 357 kts 105°
2026-05-05 18:45 -6.67616 -76.53330 19221 ft 352 kts 110°
2026-05-05 18:45 -6.68537 -76.51061 18391 ft 347 kts 111°
2026-05-05 18:45 -6.69451 -76.48831 17466 ft 342 kts 111°
2026-05-05 18:45 -6.70026 -76.47363 16861 ft 339 kts 110°
2026-05-05 18:46 -6.70842 -76.45157 15986 ft 334 kts 109°
2026-05-05 18:46 -6.71605 -76.42964 15164 ft 329 kts 108°
2026-05-05 18:46 -6.72330 -76.40801 14357 ft 324 kts 108°
2026-05-05 18:46 -6.73016 -76.38656 13559 ft 319 kts 103°
2026-05-05 18:47 -6.73377 -76.36475 12722 ft 318 kts 101°
2026-05-05 18:47 -6.74209 -76.34384 11868 ft 330 kts 124°
2026-05-05 18:47 -6.75845 -76.32736 11049 ft 339 kts 147°
2026-05-05 18:47 -6.78040 -76.31833 10338 ft 345 kts 170°
2026-05-05 18:48 -6.80374 -76.31632 10116 ft 335 kts 176°
2026-05-05 18:48 -6.82614 -76.31523 10001 ft 307 kts 176°
2026-05-05 18:48 -6.84654 -76.31431 10012 ft 274 kts 176°
2026-05-05 18:48 -6.86488 -76.31352 10024 ft 265 kts 176°
2026-05-05 18:49 -6.88289 -76.31274 10025 ft 254 kts 176°
2026-05-05 18:49 -6.90049 -76.31201 10024 ft 253 kts 176°
2026-05-05 18:49 -6.91805 -76.31247 10022 ft 253 kts 193°
2026-05-05 18:49 -6.93364 -76.32052 10017 ft 255 kts 223°
2026-05-05 18:50 -6.94332 -76.33540 10019 ft 258 kts 252°
2026-05-05 18:50 -6.94452 -76.35331 10023 ft 260 kts 282°
2026-05-05 18:50 -6.93685 -76.36964 10017 ft 261 kts 312°
2026-05-05 18:50 -6.92281 -76.38097 9834 ft 259 kts 337°
2026-05-05 18:51 -6.90574 -76.38448 9510 ft 254 kts
2026-05-05 18:51 -6.88816 -76.38239 9169 ft 254 kts 11°
2026-05-05 18:51 -6.87078 -76.37934 8839 ft 254 kts 12°
2026-05-05 18:51 -6.85353 -76.37617 8621 ft 249 kts 12°
2026-05-05 18:52 -6.83634 -76.37301 8370 ft 251 kts 11°
2026-05-05 18:52 -6.81912 -76.36981 8125 ft 250 kts 12°
2026-05-05 18:52 -6.80202 -76.36662 7883 ft 249 kts 12°
2026-05-05 18:52 -6.78501 -76.36346 7645 ft 248 kts 12°
2026-05-05 18:53 -6.76802 -76.36033 7408 ft 247 kts 12°
2026-05-05 18:53 -6.75114 -76.35719 7172 ft 246 kts 11°
2026-05-05 18:53 -6.73435 -76.35403 6936 ft 245 kts 11°
2026-05-05 18:53 -6.71761 -76.35090 6703 ft 244 kts 11°
2026-05-05 18:54 -6.70094 -76.34782 6473 ft 243 kts 11°
2026-05-05 18:54 -6.68416 -76.34693 6221 ft 242 kts 357°
2026-05-05 18:54 -6.66737 -76.34838 5983 ft 242 kts 355°
2026-05-05 18:54 -6.65088 -76.35019 5746 ft 241 kts 355°
2026-05-05 18:55 -6.63422 -76.35206 5496 ft 240 kts 354°
2026-05-05 18:55 -6.61764 -76.35386 5254 ft 239 kts 354°
2026-05-05 18:55 -6.60114 -76.35598 5015 ft 237 kts 348°
2026-05-05 18:55 -6.58527 -76.36026 4770 ft 236 kts 333°
2026-05-05 18:56 -6.57315 -76.37097 4519 ft 234 kts 300°
2026-05-05 18:56 -6.56820 -76.38647 4271 ft 235 kts 275°
2026-05-05 18:56 -6.57073 -76.40217 4039 ft 232 kts 242°
2026-05-05 18:56 -6.58084 -76.41470 3806 ft 232 kts 222°
2026-05-05 18:57 -6.59311 -76.42528 3507 ft 232 kts 219°
2026-05-05 18:57 -6.60560 -76.43550 3207 ft 231 kts 219°
2026-05-05 18:57 -6.61802 -76.44555 3026 ft 228 kts 219°
2026-05-05 18:57 -6.63061 -76.45532 3014 ft 230 kts 214°
2026-05-05 18:58 -6.64422 -76.46383 3038 ft 229 kts 210°
2026-05-05 18:58 -6.65844 -76.47124 3278 ft 231 kts 200°
2026-05-05 18:58 -6.67383 -76.47613 3460 ft 230 kts 195°
2026-05-05 18:58 -6.68901 -76.47861 3500 ft 217 kts 172°
2026-05-05 18:59 -6.70345 -76.47431 3512 ft 216 kts 156°
2026-05-05 18:59 -6.71715 -76.46806 3513 ft 216 kts 154°
2026-05-05 18:59 -6.73069 -76.46154 3518 ft 216 kts 154°
2026-05-05 18:59 -6.74423 -76.45494 3512 ft 216 kts 154°
2026-05-05 19:00 -6.75759 -76.44840 3514 ft 216 kts 154°
2026-05-05 19:00 -6.77131 -76.44169 3518 ft 216 kts 154°
2026-05-05 19:00 -6.78466 -76.43515 3520 ft 216 kts 154°
2026-05-05 19:00 -6.79814 -76.42854 3519 ft 216 kts 154°
2026-05-05 19:01 -6.81164 -76.42195 3518 ft 216 kts 154°
2026-05-05 19:01 -6.82514 -76.41536 3517 ft 216 kts 154°
2026-05-05 19:01 -6.83866 -76.40875 3518 ft 216 kts 154°
2026-05-05 19:01 -6.85099 -76.40037 3518 ft 215 kts 128°
2026-05-05 19:02 -6.85700 -76.38698 3284 ft 211 kts 94°
2026-05-05 19:02 -6.85457 -76.37278 3070 ft 202 kts 69°
2026-05-05 19:02 -6.84855 -76.36019 3004 ft 197 kts 54°
2026-05-05 19:02 -6.83817 -76.35146 3016 ft 196 kts 27°
2026-05-05 19:03 -6.82601 -76.34575 3017 ft 196 kts 23°
2026-05-05 19:03 -6.81348 -76.34038 3018 ft 195 kts 22°
2026-05-05 19:03 -6.80096 -76.33506 3019 ft 195 kts 22°
2026-05-05 19:03 -6.78795 -76.33123 3014 ft 195 kts
2026-05-05 19:04 -6.77434 -76.33077 3016 ft 195 kts 359°
2026-05-05 19:04 -6.76075 -76.33096 3016 ft 195 kts 359°
2026-05-05 19:04 -6.74722 -76.33220 3015 ft 195 kts 352°
2026-05-05 19:04 -6.73455 -76.33414 3005 ft 177 kts 351°
2026-05-05 19:05 -6.72273 -76.33604 3004 ft 169 kts 351°
2026-05-05 19:05 -6.71129 -76.33790 3008 ft 166 kts 351°
2026-05-05 19:05 -6.69993 -76.33975 3011 ft 165 kts 351°
2026-05-05 19:05 -6.68858 -76.34160 3013 ft 166 kts 351°
2026-05-05 19:06 -6.67712 -76.34346 3014 ft 167 kts 351°
2026-05-05 19:06 -6.66564 -76.34533 3014 ft 167 kts 351°
2026-05-05 19:06 -6.65416 -76.34721 3012 ft 167 kts 351°
2026-05-05 19:06 -6.64268 -76.34907 2989 ft 167 kts 351°
2026-05-05 19:07 -6.63116 -76.35092 2997 ft 167 kts 349°
2026-05-05 19:07 -6.61967 -76.35283 2875 ft 167 kts 349°
2026-05-05 19:07 -6.60827 -76.35484 2737 ft 166 kts 349°
2026-05-05 19:07 -6.59691 -76.35697 2594 ft 166 kts 348°
2026-05-05 19:08 -6.58560 -76.35940 2437 ft 166 kts 346°
2026-05-05 19:08 -6.57448 -76.36188 2241 ft 165 kts 347°
2026-05-05 19:08 -6.56359 -76.36415 2028 ft 158 kts 347°
2026-05-05 19:08 -6.55288 -76.36584 1769 ft 155 kts 353°
2026-05-05 19:09 -6.54223 -76.36722 1437 ft 153 kts 351°
2026-05-05 19:09 -6.53180 -76.36928 1211 ft 154 kts 349°
2026-05-05 19:09 -6.52125 -76.37106 982 ft 154 kts 353°
2026-05-05 19:09 -6.51130 -76.37271 881 ft 124 kts 349°
2026-05-05 19:10 -6.50578 -76.37376 876 ft 37 kts 349°
2026-05-05 19:10 -6.50393 -76.37404 877 ft 11 kts
2026-05-05 19:10 -6.50317 -76.37376 877 ft 12 kts 19°
2026-05-05 19:10 -6.50289 -76.37406 876 ft 5 kts 246°
2026-05-05 19:11 -6.50319 -76.37425 877 ft 7 kts 189°
2026-05-05 19:11 -6.50380 -76.37412 877 ft 12 kts 170°
2026-05-05 19:11 -6.50478 -76.37396 877 ft 17 kts 171°
2026-05-05 19:11 -6.50613 -76.37373 876 ft 22 kts 169°
2026-05-05 19:12 -6.50780 -76.37342 879 ft 25 kts 170°
2026-05-05 19:12 -6.50939 -76.37294 880 ft 22 kts 127°
2026-05-05 19:12 -6.51030 -76.37159 879 ft 24 kts 124°
2026-05-05 19:12 -6.51098 -76.37063 878 ft 11 kts 126°
2026-05-05 19:13 -6.51160 -76.37016 878 ft 12 kts 163°
2026-05-05 19:13 -6.51191 -76.36990 878 ft 6 kts 90°
2026-05-05 19:13 -6.51188 -76.36965 878 ft 1 kts 81°
2026-05-05 19:13 -6.51187 -76.36962 878 ft 0 kts 80°